Home   Weather   Chengdu   Past weeks

Flag for China Past Weather in Chengdu, Sichuan, China — Yesterday and Last 2 Weeks

Now
64 °F

Clear.


Feels Like: 64 °F
Forecast: 61 / 82 °F
Wind: No wind

Location: Chengdu Airport

Current Time: Apr 30, 2017 at 5:39:38 am

Latest Report: Apr 30, 2017 at 5:00 am


Visibility: 5 mi

Pressure: 29.80 "Hg

Humidity: 83%

Dew Point: 59 °F

Location of ChengduLocation

Past Weather in Chengdu — Graph

°F

Chengdu Temperature Yesterday

Maximum temperature yesterday: 81 °F (at 2:00 pm)
Minimum temperature yesterday: 61 °F (at 7:00 am)
Average temperature yesterday: 71 °F

High & Low Weather Summary for the Past Weeks

 TemperatureHumidityPressure
High86 °F (Apr 15, 2:00 pm)100% (Apr 19, 6:00 am)30.27 "Hg (Apr 19, 6:00 am)
Low52 °F (Apr 22, 6:00 am)33% (Apr 18, 4:00 pm)29.62 "Hg (Apr 19, 5:00 am)
Average67 °F70%29.95 "Hg
* Reported Apr 15 3:00 am — Apr 30 3:00 am, Chengdu, Weather by CustomWeather, © 2017

Note: Actual official high and low records may vary slightly from our data, if they occured in-between our weather recording intervals... More about our weather records

Advertising

Chengdu Weather History for the Previous 24 Hours

Scroll right to see more
 ConditionsComfort  
Time TempWeatherWind HumidityBarometerVisibility
3:00 am
Sun, Apr 30
66 °FPassing clouds.3 mph78%29.80 "HgN/A
2:00 am68 °FPassing clouds.3 mph69%29.83 "HgN/A
1:00 am66 °FClear.No wind73%29.86 "Hg10 mi
12:00 am64 °FClear.No wind78%29.86 "Hg10 mi
11:00 pm
Sat, Apr 29
68 °FClear.1 mph69%29.86 "Hg10 mi
10:00 pm66 °FClear.No wind73%29.86 "Hg10 mi
9:00 pm70 °FClear.No wind60%29.86 "Hg10 mi
8:00 pm73 °FPassing clouds.1 mph50%29.83 "HgN/A
7:00 pm79 °FPassing clouds.1 mph39%29.83 "HgN/A
6:00 pm81 °FPassing clouds.No wind34%29.80 "HgN/A
5:00 pm81 °FPassing clouds.1 mph37%29.83 "HgN/A
4:00 pm81 °FScattered clouds.3 mph39%29.83 "HgN/A
3:00 pm81 °FPassing clouds.1 mph37%29.86 "HgN/A
2:00 pm81 °FScattered clouds.1 mph42%29.89 "HgN/A
1:00 pm79 °FScattered clouds.3 mph42%29.95 "HgN/A
12:00 pm77 °FScattered clouds.No wind47%29.98 "HgN/A
11:00 am77 °FScattered clouds.3 mph47%30.01 "HgN/A
10:00 am73 °FClear.3 mph57%30.01 "Hg5 mi
9:00 am72 °FClear.No wind65%30.01 "Hg5 mi
8:00 am66 °FClear.No wind78%29.98 "Hg4 mi
7:00 am61 °FClear.No wind88%29.98 "Hg4 mi
6:00 am63 °FClear.No wind83%29.98 "Hg10 mi
5:00 am63 °FClear.No wind88%29.98 "Hg10 mi
Weather by CustomWeather, © 2017

See weather overviewHow to use our weather pages